Weather History for KIRK - July, 2013

Change the Weather History Date:

Thursday, July 4, 2013

  Actual Average Record
Temperature  
Mean Temperature 70 °F 74 °F  
Max Temperature 85 °F 84 °F - ()
Min Temperature 54 °F 64 °F - ()
Degree Days  
Heating Degree Days 0 0  
Month to date heating degree days 0 0  
Since 1 June heating degree days 36 16  
Since 1 July heating degree days 0 0  
Cooling Degree Days 5 9  
Month to date cooling degree days 16 36  
Year to date cooling degree days 291 290  
Since 1 June cooling degree days 223 228  
Growing Degree Days 19 (Base 50)    
Moisture  
Dew Point 58 °F    
Average Humidity 70    
Maximum Humidity 100    
Minimum Humidity 40    
Precipitation  
Precipitation 0.00 in 0.12 in - ()
Month to date precipitation 0.00 0.47  
Year to date precipitation 27.91 19.40  
Sea Level Pressure  
Sea Level Pressure 30.05 in    
Wind  
Wind Speed 4 mph (SSW)    
Max Wind Speed 10 mph    
Max Gust Speed 16 mph    
Visibility 9 miles    
Events      
T = Trace of Precipitation, MM = Missing Value Source: NWS Daily Summary

Daily Weather History Graph

Daily Weather History Graph

Search for Another Location

Airport or City:

Trip Planner

Search our weather history database for the weather conditions in past years. The results will help you decide how hot, cold, wet, or windy it might be!

Date:

Astronomy

Jul. 04, 2013 Rise Set
Actual Time 5:46 AM CDT 8:42 PM CDT
Civil Twilight 5:13 AM CDT 9:15 PM CDT
Nautical Twilight 4:32 AM CDT 9:56 PM CDT
Astronomical Twilight 3:44 AM CDT 10:44 PM CDT
Moon 3:03 AM CDT (7/4) 5:47 PM CDT (7/4)
Length of Visible Light 16h 01m
Length of Day
14h 56m
Waning Crescent, 11% of the Moon is Illuminated
Jul 4
Waning Crescent
Jul 8
New
Jul 15
First Quarter
Jul 22
Full
Jul 29
Last Quarter

Hourly Weather History & Observations

Time (CDT) Temp. Heat Index Dew Point Humidity Pressure Visibility Wind Dir Wind Speed Gust Speed Precip Events Conditions
12:55 AM 57.9 °F - 55.9 °F 93% 30.05 in 10.0 mi Calm Calm - N/A   Clear
1:55 AM 55.9 °F - 55.0 °F 97% 30.04 in 6.0 mi Calm Calm - N/A   Clear
2:55 AM 54.0 °F - 54.0 °F 100% 30.04 in 1.8 mi Calm Calm - N/A   Clear
3:19 AM 55.4 °F - 55.4 °F 100% 30.05 in 3.0 mi Calm Calm - N/A   Clear
3:55 AM 55.0 °F - 54.0 °F 96% 30.04 in 6.0 mi Calm Calm - N/A   Clear
4:55 AM 54.0 °F - 54.0 °F 100% 30.06 in 6.0 mi SSE 3.5 mph - N/A   Clear
5:55 AM 55.0 °F - 54.0 °F 96% 30.07 in 4.0 mi South 5.8 mph - N/A   Clear
6:55 AM 61.0 °F - 57.9 °F 90% 30.08 in 8.0 mi South 5.8 mph - N/A   Clear
7:55 AM 66.0 °F - 60.1 °F 81% 30.09 in 10.0 mi SSW 4.6 mph - N/A   Clear
8:55 AM 72.0 °F - 59.0 °F 64% 30.09 in 10.0 mi SW 3.5 mph - N/A   Clear
9:55 AM 75.9 °F - 59.0 °F 56% 30.08 in 10.0 mi SSW 6.9 mph - N/A   Clear
10:55 AM 78.1 °F - 57.9 °F 50% 30.08 in 10.0 mi SW 4.6 mph - N/A   Clear
11:55 AM 80.1 °F 80.4 °F 57.0 °F 45% 30.07 in 10.0 mi Variable 3.5 mph - N/A   Clear
12:55 PM 82.0 °F 81.7 °F 57.0 °F 42% 30.07 in 10.0 mi WSW 4.6 mph - N/A   Clear
1:55 PM 82.9 °F 82.4 °F 57.0 °F 41% 30.06 in 10.0 mi South 5.8 mph - N/A   Clear
2:55 PM 84.0 °F 83.3 °F 57.0 °F 40% 30.04 in 10.0 mi South 6.9 mph - N/A   Partly Cloudy
3:55 PM 84.0 °F 83.3 °F 57.0 °F 40% 30.04 in 10.0 mi South 4.6 mph - N/A   Partly Cloudy
4:55 PM 84.0 °F 83.8 °F 59.0 °F 43% 30.02 in 10.0 mi South 3.5 mph - N/A   Scattered Clouds
5:55 PM 82.9 °F 82.6 °F 57.9 °F 42% 30.01 in 10.0 mi SW 4.6 mph - N/A   Clear
6:55 PM 81.0 °F 81.6 °F 60.1 °F 49% 30.00 in 10.0 mi South 5.8 mph - N/A   Clear
7:55 PM 77.0 °F - 62.1 °F 60% 30.01 in 10.0 mi South 4.6 mph - N/A   Clear
8:55 PM 68.0 °F - 62.1 °F 81% 30.00 in 10.0 mi Calm Calm - N/A   Clear
9:55 PM 69.1 °F - 61.0 °F 75% 30.02 in 10.0 mi South 6.9 mph - N/A   Clear
10:55 PM 68.0 °F - 60.1 °F 76% 30.02 in 10.0 mi SSW 3.5 mph - N/A   Clear
11:55 PM 66.0 °F - 57.9 °F 75% 30.02 in 10.0 mi SSE 4.6 mph - N/A   Clear